Location: Eschentzwiller
(47.7125°N, 7.3981°E)
Time: 01:22:45
(UTC+00:00)

Cosmos 2227 Rocket - Pass Details

Date: 27 October 2020
Orbit: 839 x 845 km, 71.0° (Epoch: 26 November)

Event Time Altitude Azimuth Distance (km) Brightness Sun altitude
Rises 17:20:28 0° 334° (NNW) 3,408 5.6 -10.7°
Reaches altitude 10° 17:22:57 10° 338° (NNW) 2,470 4.8 -11.1°
Maximum altitude 17:28:33 59° 58° (ENE) 969 2.2 -12.0°
Drops below altitude 10° 17:34:08 10° 138° (SE) 2,459 4.3 -13.0°
Sets 17:36:37 0° 142° (SE) 3,391 5.0 -13.4°
